User: anonymous   Login
Location: Aalen
(48.8330°N, 10.1000°E)
Time: 13:32:42
(UTC+02:00)
Language:

Vanguard 2 Rocket - Orbit

View from above orbital plane
View from above orbital plane
View from above satellite
View from above satellite

Ground track
Ground track

The orbit data is extracted from the following two-line orbital elements,

1 00012U 59001B   21214.80762163 -.00000078  00000-0 -39735-4 0  9999
2 00012  32.9017 351.5930 1665144  78.7669 299.4759 11.44384058327109
Epoch (UTC): 02 August 2021 19:22:58
Eccentricity: 0.1665144
inclination: 32.9017°
perigee height: 555 km
apogee height: 3325 km
right ascension of ascending node: 351.5930°
argument of perigee: 78.7669°
revolutions per day: 11.44384058
mean anomaly at epoch: 299.4759°
orbit number at epoch: 32710

The dashed part of the orbit path shows where the satellite is in the earth's shadow,  

DLR